Home   Weather   Siegburg   Past weeks

Flag for Germany Past Weather in Siegburg, North Rhine-Westphalia, Germany — Yesterday and Last 2 Weeks

47 °F

Low clouds.

Feels Like: 46 °F
Forecast: 43 / 55 °F
Wind: 3 mph from West

Location: Aachen-Orsbach

Current Time: Oct 25, 2016 at 12:15:19 PM

Latest Report: Oct 25, 2016 at 10:00 AM

Visibility: 0 mi

Pressure: 30.18 "Hg

Humidity: 100%

Dew Point: 47 °F

Location of SiegburgLocation

Past Weather in Siegburg — Graph


Siegburg Temperature Yesterday

Maximum temperature yesterday: 51 °F (at 6:00 PM)
Minimum temperature yesterday: 45 °F (at 7:00 AM)
Average temperature yesterday: 49 °F

High & Low Weather Summary for the Past Weeks

High67 °F (Oct 16, 3:00 PM)100% (Oct 11, 6:00 AM)30.27 "Hg (Oct 11, 6:00 AM)
Low35 °F (Oct 23, 7:00 AM)51% (Oct 16, 3:00 PM)29.66 "Hg (Oct 15, 3:00 AM)
Average48 °F88%30.01 "Hg
* Reported Oct 10 10:00 AM — Oct 25 10:00 AM, Siegburg, Weather by CustomWeather, © 2016

Note: Actual official high and low records may vary slightly from our data, if they occured in-between our weather recording intervals... More about our weather records


Siegburg Weather History for the Previous 24 Hours

Scroll right to see more
Time TempWeatherWind HumidityBarometerVisibility
10:00 AM
Tue, Oct 25
47 °FLow clouds.3 mph100%30.18 "Hg0 mi
9:00 AM47 °FLow clouds.5 mph100%30.17 "Hg0 mi
7:00 AM48 °FLow clouds.6 mph100%30.11 "Hg0 mi
6:00 AM49 °FDrizzle. Low clouds.6 mph97%30.09 "Hg2 mi
4:00 AM49 °FLow clouds.5 mph98%30.06 "Hg1 mi
3:00 AM50 °FFog.6 mph97%30.03 "Hg2 mi
2:00 AMN/APassing clouds.5 mphN/AN/A7 mi
1:00 AM51 °FLow clouds.3 mph99%30.01 "Hg2 mi
12:00 AM51 °FLow clouds.2 mph99%29.99 "Hg0 mi
10:00 PM
Mon, Oct 24
51 °FLow clouds.1 mph100%29.96 "Hg1 mi
9:00 PM51 °FDrizzle. Low clouds.1 mph99%29.94 "Hg0 mi
8:00 PMN/APassing clouds.7 mphN/AN/A12 mi
7:00 PM51 °FLight rain. Overcast.2 mph99%29.93 "Hg1 mi
6:00 PM51 °FLow clouds.1 mph98%29.91 "Hg2 mi
4:00 PM51 °FLight rain. Low clouds.1 mph97%29.90 "Hg2 mi
3:00 PM51 °FLight rain. Low clouds.1 mph97%29.88 "Hg1 mi
2:00 PMN/APassing clouds.7 mphN/AN/A22 mi
1:00 PM48 °FLight rain. Low clouds.2 mph99%29.87 "Hg1 mi
12:00 PM47 °FLight rain. Overcast.2 mph98%29.88 "Hg1 mi
Weather by CustomWeather, © 2016

See weather overviewHow to use our weather pages